Location: Buenos Aires
(34.6076°S, 58.4371°W)
Time: 15:06:58
(UTC-03:00)

N. Korean satellite - Visible Passes

Search period start: 22 June 2021 00:00
Search period end: 02 July 2021 00:00
Orbit: 450 x 499 km, 97.2° (Epoch: 21 June)

Date Brightness Start Highest point End Pass type
(mag) Time Alt. Az. Time Alt. Az. Time Alt. Az.
22 Jun 8.3 18:40:57 10° S 18:44:08 32° WSW 18:47:13 10° NW visible
23 Jun 6.6 18:13:23 10° S 18:16:55 85° WSW 18:20:21 10° NNW visible
24 Jun 9.9 19:22:20 10° WSW 19:22:26 10° WSW 19:22:31 10° WSW visible
25 Jun 8.9 18:52:35 10° SSW 18:55:22 22° WSW 18:58:06 10° NW visible
26 Jun 7.2 18:24:46 10° S 18:28:11 55° WSW 18:31:33 10° NNW visible
28 Jun 9.4 19:04:22 10° SSW 19:06:34 16° WSW 19:08:44 10° WNW visible
29 Jun 8.0 18:36:12 10° S 18:39:25 36° WSW 18:42:35 10° NW visible
01 Jul 9.6 19:16:33 10° SW 19:17:43 11° WSW 19:18:52 10° W visible
